Find Starlink 11087

NORAD ID: 59421 Int'l Des: 2024-065 Owner: SPXS Country: US Constellation: starlink operational
LEOCIRCULAR

現在のビュー

3D地球を読み込み中...

About Starlink 11087

Starlink 11087 (NORAD 59421) is a starlink constellation satellite (v2 mini d2c) launched Apr 7, 2024 by SPXS of US. It operates in LEO, CIRCULAR orbit with a mass of 960.00 kg.

Starlink 11087について

説明を読み込み中...

次回通過

Passes for default location (London). Set your location on the main map for personalized predictions.

高度履歴

Loading altitude history...

軌道要素

1 59421U 24065A 26171.40360833 .00001325 00000-0 15799-4 0 9998
2 59421 53.1600 307.6778 0001121 80.2471 279.8673 15.69702920127646
Epoch: Jun 20, 2026 • Age: 21 hours

現在のステータス

高度 376.7 km
速度 7.68 km/s
衛星直下点 -47.44°S, 169.16°E
打ち上げ日 Apr 7, 2024
運用期間 2.2 years
タイプ internet

技術仕様

分類 Payload
質量 960.00 kg
乾燥質量 910.00 kg
総質量 960.00 kg
長さ 0.30 m
直径 4.10 m
スパン 29.00 m
形状 Box + pan
製造者 SPXS
バスタイプ Starlink V2MD
フェーズステータス In Orbit
所有者/国 SPXS/US

Most Searched